Location: Puketoi
(40.5833°S, 176.0167°E)
Time: 15:24:27
(UTC+00:00)

Atlas Centaur 2 - Pass Details

Date: 08 February 2023
Orbit: 458 x 1296 km, 30.4° (Epoch: 22 March)

Event Time Altitude Azimuth Distance (km) Brightness Sun altitude
Exits shadow 16:48:48 - 324° (NW) 2,425 4.0 -8.4°
Reaches altitude 10° 16:49:44 10° 332° (NNW) 2,155 3.8 -8.3°
Maximum altitude 16:52:49 16° 10° (N) 1,620 3.5 -7.7°
Drops below altitude 10° 16:55:34 10° 50° (NE) 1,881 4.4 -7.3°
Sets 16:58:20 0° 72° (ENE) 2,664 5.6 -6.8°
